• In Czech Republic
  • List of Countries
  • For 7 days
  • Water Temperature
  • Satellite Maps
  • Weather Map
  • Weather Widgets
  • user-avatar
    Login

    Hourly Weather Barisal

    Today, 23 August, Wednesday

    Time Temperature Precipitation Wind Pressure Humidity
    00:00 +30°C° 0 mm 2 mps 752 mmHg 80%
    01:00 +30°C° 0.8 mm 2 mps 752 mmHg 80%
    02:00 +30°C° 0.8 mm 1 mps 752 mmHg 80%
    03:00 +30°C° 0.8 mm 1 mps 752 mmHg 80%
    04:00 +30°C° 0.2 mm 1 mps 752 mmHg 80%
    05:00 +30°C° 0.2 mm 1 mps 752 mmHg 81%
    06:00 +28°C° 0.2 mm 0 mps 752 mmHg 81%
    07:00 +31°C° 0.1 mm 1 mps 752 mmHg 75%
    08:00 +32°C° 0.1 mm 1 mps 753 mmHg 68%
    09:00 +34°C° 0.1 mm 2 mps 753 mmHg 62%
    10:00 +35°C° 0.3 mm 2 mps 753 mmHg 59%
    11:00 +36°C° 0.3 mm 2 mps 752 mmHg 56%
    12:00 +37°C° 0.3 mm 3 mps 752 mmHg 53%
    13:00 +37°C° 0.6 mm 3 mps 751 mmHg 54%
    14:00 +37°C° 0.6 mm 3 mps 751 mmHg 55%
    15:00 +36°C° 0.6 mm 3 mps 750 mmHg 56%
    16:00 +36°C° 0.7 mm 3 mps 750 mmHg 60%
    17:00 +35°C° 0.7 mm 3 mps 750 mmHg 64%
    18:00 +34°C° 0.7 mm 3 mps 750 mmHg 67%
    19:00 +34°C° 0.1 mm 3 mps 751 mmHg 70%
    20:00 +33°C° 0.1 mm 3 mps 751 mmHg 74%
    21:00 +31°C° 0.1 mm 3 mps 752 mmHg 77%
    22:00 +31°C° 0 mm 3 mps 752 mmHg 78%
    23:00 +31°C° 0 mm 3 mps 752 mmHg 79%

    Tomorrow, 24 August, Thursday

    Time Temperature Precipitation Wind Pressure Humidity
    00:00 +31°C° 0 mm 3 mps 752 mmHg 80%
    01:00 +30°C° 0.1 mm 3 mps 752 mmHg 81%
    02:00 +30°C° 0.1 mm 2 mps 751 mmHg 82%
    03:00 +30°C° 0.1 mm 2 mps 751 mmHg 83%
    04:00 +30°C° 0.4 mm 2 mps 751 mmHg 84%
    05:00 +30°C° 0.4 mm 2 mps 751 mmHg 86%
    06:00 +30°C° 0.4 mm 2 mps 752 mmHg 87%
    07:00 +30°C° 0.3 mm 2 mps 752 mmHg 85%
    08:00 +30°C° 0.3 mm 2 mps 753 mmHg 82%
    09:00 +31°C° 0.3 mm 2 mps 753 mmHg 80%
    10:00 +32°C° 0 mm 2 mps 753 mmHg 73%
    11:00 +34°C° 0 mm 3 mps 752 mmHg 66%
    12:00 +36°C° 0 mm 3 mps 752 mmHg 59%
    13:00 +36°C° 0 mm 3 mps 751 mmHg 58%
    14:00 +36°C° 0 mm 3 mps 750 mmHg 57%
    15:00 +36°C° 0 mm 3 mps 750 mmHg 56%
    16:00 +36°C° 0 mm 3 mps 750 mmHg 59%
    17:00 +35°C° 0 mm 4 mps 750 mmHg 62%
    18:00 +34°C° 0 mm 4 mps 750 mmHg 65%
    19:00 +33°C° 0 mm 4 mps 750 mmHg 69%
    20:00 +33°C° 0 mm 3 mps 751 mmHg 72%
    21:00 +31°C° 0 mm 3 mps 752 mmHg 76%
    22:00 +31°C° 0 mm 3 mps 751 mmHg 77%
    23:00 +31°C° 0 mm 3 mps 751 mmHg 79%

    Day after tomorrow, 25 August, Friday

    Time Temperature Precipitation Wind Pressure Humidity
    00:00 +30°C° 0 mm 2 mps 751 mmHg 81%
    01:00 +30°C° 0.3 mm 2 mps 751 mmHg 82%
    02:00 +30°C° 0.3 mm 2 mps 751 mmHg 82%
    03:00 +30°C° 0.3 mm 1 mps 750 mmHg 83%
    04:00 +30°C° 0.2 mm 1 mps 750 mmHg 84%
    05:00 +30°C° 0.2 mm 1 mps 750 mmHg 84%
    06:00 +30°C° 0.2 mm 1 mps 751 mmHg 84%
    07:00 +31°C° 0 mm 1 mps 751 mmHg 78%
    08:00 +32°C° 0 mm 1 mps 751 mmHg 72%
    09:00 +34°C° 0 mm 2 mps 752 mmHg 66%
    10:00 +35°C° 0 mm 2 mps 751 mmHg 62%
    11:00 +36°C° 0 mm 3 mps 751 mmHg 59%
    12:00 +37°C° 0 mm 3 mps 751 mmHg 55%
    13:00 +36°C° 0.2 mm 3 mps 750 mmHg 57%
    14:00 +36°C° 0.2 mm 4 mps 749 mmHg 58%
    15:00 +36°C° 0.2 mm 4 mps 748 mmHg 60%
    16:00 +35°C° 0.1 mm 4 mps 748 mmHg 63%
    17:00 +35°C° 0.1 mm 4 mps 748 mmHg 67%
    18:00 +34°C° 0.1 mm 4 mps 748 mmHg 71%
    19:00 +33°C° 0 mm 4 mps 749 mmHg 74%
    20:00 +33°C° 0 mm 4 mps 750 mmHg 76%
    21:00 +32°C° 0 mm 4 mps 751 mmHg 79%
    22:00 +31°C° 0 mm 3 mps 750 mmHg 80%
    23:00 +31°C° 0 mm 3 mps 750 mmHg 81%

    26 August, Saturday

    Time Temperature Precipitation Wind Pressure Humidity
    00:00 +31°C° 0 mm 3 mps 750 mmHg 82%
    01:00 +30°C° 0.1 mm 2 mps 749 mmHg 83%
    02:00 +30°C° 0.1 mm 2 mps 749 mmHg 84%
    03:00 +30°C° 0.1 mm 2 mps 749 mmHg 85%
    04:00 +30°C° 0.3 mm 2 mps 749 mmHg 85%
    05:00 +30°C° 0.3 mm 2 mps 749 mmHg 86%
    06:00 +30°C° 0.3 mm 2 mps 749 mmHg 86%
    07:00 +30°C° 0 mm 2 mps 750 mmHg 83%
    08:00 +31°C° 0 mm 2 mps 750 mmHg 81%
    09:00 +31°C° 0 mm 3 mps 750 mmHg 78%
    10:00 +33°C° 0.6 mm 3 mps 750 mmHg 73%
    11:00 +35°C° 0.6 mm 3 mps 750 mmHg 68%
    12:00 +36°C° 0.6 mm 3 mps 749 mmHg 62%
    13:00 +36°C° 2.2 mm 4 mps 749 mmHg 62%
    14:00 +36°C° 2.2 mm 4 mps 748 mmHg 62%
    15:00 +36°C° 2.2 mm 4 mps 747 mmHg 62%
    16:00 +35°C° 0.3 mm 4 mps 747 mmHg 64%
    17:00 +35°C° 0.3 mm 3 mps 748 mmHg 66%
    18:00 +34°C° 0.3 mm 3 mps 748 mmHg 69%
    19:00 +33°C° 0.5 mm 3 mps 748 mmHg 72%
    20:00 +32°C° 0.5 mm 2 mps 749 mmHg 76%
    21:00 +31°C° 0.5 mm 2 mps 749 mmHg 80%
    22:00 +31°C° 0.4 mm 2 mps 749 mmHg 81%
    23:00 +31°C° 0.4 mm 2 mps 749 mmHg 82%

    27 August, Sunday

    Time Temperature Precipitation Wind Pressure Humidity
    00:00 +30°C° 0.4 mm 1 mps 749 mmHg 84%
    01:00 +30°C° 1.2 mm 1 mps 748 mmHg 83%
    02:00 +30°C° 1.2 mm 1 mps 748 mmHg 83%
    03:00 +30°C° 1.2 mm 1 mps 748 mmHg 83%
    04:00 +30°C° 0.5 mm 1 mps 748 mmHg 83%
    05:00 +30°C° 0.5 mm 2 mps 748 mmHg 83%
    06:00 +30°C° 0.5 mm 2 mps 749 mmHg 83%
    07:00 +31°C° 0.5 mm 3 mps 749 mmHg 78%
    08:00 +33°C° 0.5 mm 4 mps 750 mmHg 74%
    09:00 +34°C° 0.5 mm 5 mps 750 mmHg 70%
    10:00 +34°C° 1 mm 6 mps 750 mmHg 70%
    11:00 +34°C° 1 mm 7 mps 750 mmHg 71%
    12:00 +34°C° 1 mm 8 mps 749 mmHg 72%
    13:00 +34°C° 0.5 mm 8 mps 749 mmHg 72%
    14:00 +34°C° 0.5 mm 8 mps 749 mmHg 72%
    15:00 +34°C° 0.5 mm 8 mps 748 mmHg 72%
    16:00 +33°C° 0.3 mm 7 mps 748 mmHg 74%
    17:00 +32°C° 0.3 mm 7 mps 749 mmHg 75%
    18:00 +32°C° 0.3 mm 6 mps 749 mmHg 77%
    19:00 +32°C° 0.3 mm 6 mps 750 mmHg 79%
    20:00 +30°C° 0.3 mm 6 mps 750 mmHg 81%
    21:00 +30°C° 0.3 mm 5 mps 751 mmHg 83%
    22:00 +30°C° 0.3 mm 5 mps 751 mmHg 83%
    23:00 +30°C° 0.3 mm 5 mps 751 mmHg 84%

    28 August, Monday

    Time Temperature Precipitation Wind Pressure Humidity
    00:00 +30°C° 0.3 mm 5 mps 751 mmHg 84%
    01:00 +29°C° 0.3 mm 5 mps 750 mmHg 84%
    02:00 +29°C° 0.3 mm 5 mps 750 mmHg 85%
    03:00 +29°C° 0.3 mm 5 mps 750 mmHg 85%
    04:00 +29°C° 0.2 mm 5 mps 750 mmHg 85%
    05:00 +29°C° 0.2 mm 5 mps 750 mmHg 85%
    06:00 +29°C° 0.2 mm 5 mps 751 mmHg 85%
    07:00 +32°C° 0 mm 6 mps 751 mmHg 80%
    08:00 +33°C° 0 mm 7 mps 751 mmHg 75%
    09:00 +34°C° 0 mm 7 mps 752 mmHg 70%
    10:00 +35°C° 0.3 mm 8 mps 752 mmHg 68%
    11:00 +35°C° 0.3 mm 8 mps 751 mmHg 66%
    12:00 +37°C° 0.3 mm 8 mps 751 mmHg 64%
    13:00 +36°C° 0.2 mm 7 mps 750 mmHg 63%
    14:00 +36°C° 0.2 mm 7 mps 750 mmHg 63%
    15:00 +36°C° 0.2 mm 7 mps 749 mmHg 62%
    16:00 +35°C° 0 mm 6 mps 749 mmHg 65%
    17:00 +34°C° 0 mm 6 mps 750 mmHg 68%
    18:00 +33°C° 0 mm 5 mps 750 mmHg 70%
    19:00 +33°C° 0 mm 5 mps 751 mmHg 73%
    20:00 +32°C° 0 mm 4 mps 751 mmHg 76%
    21:00 +32°C° 0 mm 4 mps 752 mmHg 79%
    22:00 +32°C° 0.9 mm 4 mps 752 mmHg 80%
    23:00 +30°C° 0.9 mm 4 mps 752 mmHg 82%
    Show more